Weather History for Chattanooga, TN

Change the Weather History Date:

Thursday, March 28, 2013

  Actual Average Record
Temperature  
Mean Temperature 47 °F 56 °F  
Max Temperature 63 °F 68 °F 87 °F (1907)
Min Temperature 30 °F 44 °F 25 °F (1894)
Degree Days  
Heating Degree Days 18 10  
Month to date heating degree days 518 375  
Since 1 July heating degree days 2834 2997  
Cooling Degree Days 0 0  
Month to date cooling degree days 3 0  
Year to date cooling degree days 5 0  
Moisture  
Dew Point 30 °F    
Average Humidity 61    
Maximum Humidity 92    
Minimum Humidity 29    
Precipitation  
Precipitation 0.00 in 0.16 in 4.42 in (1951)
Month to date precipitation 3.68 4.50  
Year to date precipitation 17.36 14.25  
Snow  
Snow 0.00 in 0.00 in - ()
Month to date snowfall T 1.2  
Since 1 July snowfall 0.3 3.8  
Snow Depth 0.00 in    
Sea Level Pressure  
Sea Level Pressure 30.32 in    
Wind  
Wind Speed 3 mph (NNW)    
Max Wind Speed 20 mph    
Max Gust Speed 25 mph    
Visibility 10 miles    
Events      
T = Trace of Precipitation, MM = Missing Value Source: NWS Daily Summary

Daily Weather History Graph

Daily Weather History Graph

Search for Another Location

Airport:

Trip Planner

Search our weather history database for the weather conditions in past years. The results will help you decide how hot, cold, wet, or windy it might be!

Date:

Astronomy

Mar. 28, 2013 Rise Set
Actual Time 7:32 AM EDT 7:59 PM EDT
Civil Twilight 7:07 AM EDT 8:24 PM EDT
Nautical Twilight 6:37 AM EDT 8:54 PM EDT
Astronomical Twilight 6:07 AM EDT 9:24 PM EDT
Moon 9:44 PM EDT (3/28) 8:04 AM EDT (3/28)
Length of Visible Light 13h 17m
Length of Day
12h 26m
Full, 98% of the Moon is Illuminated
Mar 28
Full
Apr 3
Last Quarter
Apr 10
New
Apr 18
First Quarter
Apr 25
Full

Hourly Weather History & Observations

Time (EDT) Temp. Windchill Dew Point Humidity Pressure Visibility Wind Dir Wind Speed Gust Speed Precip Events Conditions
12:53 AM 37.9 °F - 30.0 °F 73% 30.31 in 10.0 mi Calm Calm - N/A   Clear
1:53 AM 35.1 °F - 30.0 °F 82% 30.31 in 10.0 mi Calm Calm - N/A   Clear
2:53 AM 33.1 °F - 30.0 °F 89% 30.32 in 10.0 mi Calm Calm - N/A   Clear
3:53 AM 33.1 °F - 30.0 °F 89% 30.30 in 10.0 mi Calm Calm - N/A   Clear
4:53 AM 32.0 °F - 30.0 °F 92% 30.32 in 10.0 mi Calm Calm - N/A   Clear
5:53 AM 32.0 °F - 28.9 °F 88% 30.32 in 10.0 mi Calm Calm - N/A   Partly Cloudy
6:53 AM 30.9 °F - 28.9 °F 92% 30.35 in 10.0 mi Calm Calm - N/A   Partly Cloudy
7:53 AM 30.9 °F - 28.9 °F 92% 30.36 in 10.0 mi Calm Calm - N/A   Scattered Clouds
8:53 AM 34.0 °F - 30.9 °F 89% 30.38 in 10.0 mi Calm Calm - N/A   Scattered Clouds
9:53 AM 41.0 °F - 30.0 °F 65% 30.38 in 10.0 mi Calm Calm - N/A   Scattered Clouds
10:53 AM 46.0 °F 43.9 °F 27.0 °F 47% 30.39 in 10.0 mi NNW 4.6 mph - N/A   Partly Cloudy
11:53 AM 48.9 °F - 27.0 °F 43% 30.38 in 10.0 mi Variable 3.5 mph - 0.01 in   Partly Cloudy
12:53 PM 53.1 °F - 27.0 °F 37% 30.37 in 10.0 mi Calm Calm - N/A   Partly Cloudy
1:53 PM 55.0 °F - 28.0 °F 35% 30.34 in 10.0 mi ESE 3.5 mph - N/A   Scattered Clouds
2:53 PM 57.9 °F - 28.0 °F 32% 30.31 in 10.0 mi NNE 4.6 mph - N/A   Scattered Clouds
3:53 PM 59.0 °F - 28.0 °F 31% 30.28 in 10.0 mi Calm Calm - N/A   Mostly Cloudy
4:53 PM 61.0 °F - 28.0 °F 29% 30.26 in 10.0 mi NNW 16.1 mph 25.3 mph N/A   Scattered Clouds
5:53 PM 61.0 °F - 28.9 °F 30% 30.26 in 10.0 mi NNW 12.7 mph - N/A   Partly Cloudy
6:53 PM 60.1 °F - 28.9 °F 31% 30.26 in 10.0 mi NW 9.2 mph - N/A   Partly Cloudy
7:53 PM 55.9 °F - 30.0 °F 37% 30.28 in 10.0 mi NNW 9.2 mph - N/A   Partly Cloudy
8:53 PM 52.0 °F - 30.9 °F 45% 30.30 in 10.0 mi NW 4.6 mph - N/A   Clear
9:53 PM 50.0 °F - 33.1 °F 52% 30.31 in 10.0 mi Calm Calm - N/A   Clear
10:53 PM 48.0 °F - 34.0 °F 58% 30.32 in 10.0 mi Calm Calm - N/A   Clear
11:53 PM 44.1 °F - 35.1 °F 71% 30.32 in 10.0 mi Calm Calm - N/A   Clear